User: anonymous   Login
Location: Evergreen Manor
(41.4083°N, 81.4939°W)
Time: 00:55:49
(UTC+00:00)
Language:

STARLINK-1045 - Orbit

View from above orbital plane
View from above orbital plane
View from above satellite
View from above satellite

Ground track
Ground track

The orbit data is extracted from the following two-line orbital elements,

1 44750U 19074AP  20047.58334491 +.00030993 +00000-0 +21379-2 0  9999
2 44750 052.9952 081.6477 0001695 060.6768 132.9902 15.05562947014826
Epoch (UTC): 16 February 2020 14:00:01
Eccentricity: 0.0001695
inclination: 52.9952°
perigee height: 548 km
apogee height: 551 km
right ascension of ascending node: 81.6477°
argument of perigee: 60.6768°
revolutions per day: 15.05562947
mean anomaly at epoch: 132.9902°
orbit number at epoch: 1482

The dashed part of the orbit path shows where the satellite is in the earth's shadow,  

DLR